Probability
0 0 0 0 0 3 6 0 0 3 6 6 3 3 3 6 6 6 0 0 0 0 6 0 0 0 0 0 0 0 0 0 0 0 0 0 0 0 0 0 0 0 0
0 0 0 0 0 3 3 0 0 0 6 6 3 3 3 3 6 6 0 0 0 0 0 0 0 0 0 0 0 0 0 0 0 0 0 0 0 0 0 0 0 0 0
0 0 0 0 0 3 0 0 0 0 3 3 0 0 3 6 6 3 0 0 0 0 0 0 0 0 0 0 0 0 0 0 0 0 0 0 0 0 0 0 0 0 0
0 0 0 0 0 3 0 0 0 0 0 0 0 0 3 3 3 3 0 0 0 0 0 0 0 0 0 0 0 0 0 0 0 0 0 0 0 0 0 0 0 0 0
0 0 0 0 0 0 0 0 0 0 0 0 0 0 3 3 3 3 3 3 3 0 0 0 0 0 0 0 0 0 0 0 0 0 0 0 0 0 0 0 0 0 0
0 0 0 0 0 0 0 0 0 0 0 0 0 0 0 0 0 3 3 3 3 3 0 0 0 0 0 0 0 0 0 0 0 0 0 0 0 0 0 0 0 0 0
0 0 0 0 0 0 0 0 0 0 0 0 0 0 0 0 0 0 0 0 0 0 0 0 0 0 0 0 0 0 0 0 0 0 0 0 0 0 0 0 0 0 0
0 0 0 0 0 0 0 0 0 0 0 0 0 0 0 0 0 0 0 0 0 0 0 0 0 0 0 0 0 0 0 0 0 0 0 0 0 0 0 0 0 0 0
0 0 0 0 0 0 0 0 0 0 0 0 0 0 0 0 0 0 0 0 0 0 0 0 0 0 0 0 0 0 0 0 0 0 0 0 0 0 0 0 0 0 0
0 0 0 0 0 0 0 0 0 0 0 0 0 0 0 0 0 0 0 0 0 0 0 0 0 0 0 0 0 0 0 0 0 0 0 0 0 0 0 0 0 0 0
0 0 0 0 0 0 0 0 0 0 0 0 0 0 0 0 0 0 0 0 0 0 0 0 0 0 0 0 0 0 0 0 0 0 0 0 0 0 0 0 0 0 0
0 0 0 0 0 0 0 0 0 0 0 0 0 0 0 0 0 0 0 0 0 0 0 0 0 0 0 0 0 0 0 0 0 0 0 0 0 0 0 0 0 0 0
0 0 0 0 0 0 0 0 0 0 0 0 0 0 0 0 0 0 0 0 0 0 0 0 0 0 0 0 0 0 0 0 0 0 0 0 0 0 0 0 0 0 0
0 0 0 0 0 0 0 0 0 0 0 0 0 0 0 0 0 0 0 0 0 0 0 0 0 0 0 0 0 0 0 0 0 0 0 0 0 0 0 0 0 0 0
0 0 0 0 0 0 0 0 0 0 0 0 0 0 0 0 0 0 0 0 0 0 0 0 0 0 0 0 0 0 0 0 0 0 0 0 0 0 0 0 0 0 0
0 0 0 0 0 0 0 0 0 0 0 0 0 0 0 0 0 0 0 0 0 0 0 0 0 0 0 0 0 0 0 0 0 0 0 0 0 0 0 0 0 0 0
0 0 0 0 0 0 0 0 0 0 0 0 0 0 0 0 0 0 0 0 0 0 0 0 0 0 0 0 0 0 0 0 0 0 0 0 0 0 0 0 0 0 0
0 0 0 0 0 0 0 0 0 0 0 0 0 0 0 0 0 0 0 0 0 0 0 0 0 0 0 0 0 0 0 0 0 0 0 0 0 0 0 0 0 0 0
0 0 0 0 0 0 0 0 0 0 0 0 0 0 0 0 0 0 0 0 0 0 0 0 0 0 0 0 0 0 0 0 0 0 0 0 0 0 0 0 0 0 0
0 0 0 0 0 0 0 0 0 0 0 0 0 0 0 0 0 0 0 0 0 0 0 0 0 0 0 0 0 0 0 0 0 0 0 0 0 0 0 0 0 0 0
0 0 0 0 0 0 0 0 0 0 0 0 0 0 0 0 0 0 0 0 0 0 0 0 0 0 0 0 0 0 0 0 0 0 0 0 0 0 0 0 0 0 0
0 0 0 0 0 0 0 0 0 0 0 0 0 0 0 0 0 0 0 0 0 0 0 0 0 0 0 0 0 0 0 0 0 0 0 0 0 0 0 0 0 0 0
0 0 0 0 0 0 0 0 0 0 0 0 0 0 0 0 0 0 0 0 0 0 0 0 0 0 0 0 0 0 0 0 0 0 0 0 0 0 0 0 0 0 0
0 0 0 0 0 0 0 0 0 0 0 0 0 0 0 0 0 0 0 0 0 0 0 0 0 0 0 0 0 0 0 0 0 0 0 0 0 0 0 0 0 0 0
0 0 0 0 0 0 0 0 0 0 0 0 0 0 0 0 0 0 0 0 0 0 0 0 0 0 0 0 0 0 0 0 0 0 0 0 0 0 0 0 0 0 0
0 0 0 0 0 0 0 0 0 0 0 0 0 0 0 0 0 0 0 0 0 0 0 0 0 0 0 0 0 0 0 0 0 0 0 0 0 0 0 0 0 0 0
Height
5742 5747 5751 5755 5759 5763 5766 5769 5772 5775 5777 5779 5781 5783 5784 5785 5786 5787 5788 5788 5788 5788 5787 5787 5786 5785 5784 5783 5781 5779 5777 5774 5772 5770 5767 5764 5761 5758 5755 5752 5749 5746 5742
5734 5739 5743 5747 5751 5755 5758 5762 5764 5767 5769 5772 5774 5775 5777 5778 5779 5780 5780 5781 5781 5780 5780 5779 5779 5778 5777 5775 5773 5771 5769 5766 5764 5762 5759 5757 5754 5750 5747 5744 5740 5737 5734
5726 5731 5735 5739 5743 5747 5750 5754 5757 5759 5762 5764 5766 5767 5769 5770 5771 5772 5773 5773 5773 5773 5773 5772 5771 5770 5769 5767 5765 5763 5761 5759 5756 5754 5751 5749 5746 5743 5740 5736 5732 5729 5725
5718 5722 5727 5731 5735 5739 5742 5745 5748 5751 5753 5756 5758 5760 5761 5763 5764 5765 5765 5766 5766 5765 5765 5764 5764 5763 5761 5759 5757 5755 5753 5751 5749 5746 5744 5741 5738 5735 5733 5730 5726 5722 5717
5709 5714 5718 5722 5726 5730 5734 5737 5740 5743 5745 5748 5750 5752 5754 5755 5756 5757 5757 5758 5758 5758 5757 5756 5756 5755 5753 5752 5750 5748 5746 5744 5742 5739 5737 5734 5731 5728 5725 5723 5719 5715 5710
5700 5704 5709 5713 5717 5721 5725 5728 5732 5734 5737 5739 5742 5744 5745 5747 5748 5749 5749 5750 5750 5750 5749 5748 5748 5747 5745 5744 5742 5740 5739 5737 5734 5732 5729 5727 5724 5721 5717 5715 5712 5708 5703
5691 5696 5700 5704 5708 5712 5716 5720 5723 5726 5729 5731 5733 5735 5737 5739 5740 5741 5742 5742 5742 5742 5741 5741 5740 5739 5737 5736 5734 5733 5731 5729 5727 5724 5722 5719 5716 5713 5710 5707 5703 5700 5696
5683 5687 5691 5695 5699 5703 5707 5710 5714 5717 5720 5722 5725 5727 5729 5730 5732 5733 5734 5734 5734 5733 5733 5732 5731 5730 5729 5728 5727 5725 5723 5721 5719 5717 5714 5711 5708 5705 5702 5699 5695 5692 5689
5674 5678 5682 5686 5690 5694 5698 5701 5705 5708 5711 5713 5716 5718 5720 5722 5723 5724 5725 5726 5726 5725 5725 5724 5723 5722 5721 5720 5719 5717 5715 5713 5711 5709 5706 5704 5701 5698 5694 5691 5687 5684 5680
5666 5670 5674 5677 5681 5685 5688 5692 5696 5699 5702 5705 5707 5710 5712 5713 5715 5716 5717 5717 5717 5717 5717 5716 5715 5714 5713 5712 5711 5709 5707 5705 5703 5701 5698 5696 5693 5690 5686 5683 5679 5675 5671
5658 5662 5665 5669 5672 5676 5679 5683 5686 5690 5693 5696 5698 5701 5703 5705 5706 5708 5708 5709 5709 5709 5708 5708 5707 5706 5705 5704 5703 5701 5699 5697 5695 5693 5691 5688 5685 5682 5679 5675 5672 5668 5664
5650 5653 5657 5660 5664 5667 5671 5674 5677 5681 5684 5687 5689 5692 5694 5696 5698 5699 5700 5700 5700 5700 5700 5699 5698 5698 5697 5696 5694 5693 5691 5689 5687 5685 5682 5680 5677 5674 5670 5667 5664 5660 5656
5642 5645 5648 5652 5655 5658 5662 5665 5668 5672 5675 5677 5680 5683 5685 5687 5689 5690 5690 5691 5691 5691 5691 5691 5690 5689 5688 5687 5686 5684 5682 5680 5678 5676 5674 5671 5668 5666 5662 5659 5656 5653 5649
5634 5637 5640 5643 5646 5650 5653 5656 5659 5662 5665 5668 5671 5673 5676 5677 5679 5680 5681 5682 5683 5683 5683 5682 5682 5681 5680 5679 5677 5675 5673 5671 5669 5667 5665 5663 5660 5658 5655 5652 5649 5646 5643
5627 5630 5632 5635 5638 5641 5644 5647 5650 5653 5656 5659 5662 5664 5666 5668 5669 5671 5672 5673 5673 5674 5674 5674 5673 5673 5672 5671 5669 5666 5664 5662 5660 5658 5656 5654 5652 5650 5647 5645 5642 5640 5637
5620 5622 5625 5627 5630 5633 5635 5638 5641 5644 5647 5649 5652 5654 5656 5658 5660 5661 5663 5664 5664 5665 5665 5665 5665 5664 5663 5662 5660 5658 5656 5654 5652 5650 5648 5646 5644 5642 5640 5638 5636 5633 5630
5613 5615 5617 5620 5622 5624 5627 5630 5632 5635 5637 5640 5642 5645 5647 5649 5651 5652 5653 5654 5655 5656 5656 5656 5656 5655 5655 5653 5652 5650 5648 5646 5645 5643 5641 5639 5637 5635 5633 5631 5629 5626 5624
5606 5608 5610 5612 5614 5616 5619 5621 5623 5626 5628 5631 5633 5635 5637 5639 5641 5642 5644 5645 5646 5646 5647 5647 5647 5646 5646 5645 5644 5642 5640 5639 5637 5635 5634 5632 5630 5628 5626 5625 5623 5620 5618
5598 5600 5602 5604 5606 5608 5610 5613 5615 5617 5619 5622 5624 5626 5628 5630 5631 5633 5634 5635 5636 5637 5637 5637 5638 5637 5637 5636 5635 5634 5633 5631 5630 5628 5627 5625 5623 5622 5620 5619 5617 5615 5613
5590 5592 5594 5596 5598 5600 5602 5604 5606 5608 5611 5613 5615 5617 5619 5620 5622 5623 5624 5625 5626 5627 5628 5628 5628 5628 5628 5628 5627 5626 5625 5624 5622 5621 5619 5618 5617 5615 5614 5612 5611 5609 5608
5582 5584 5586 5588 5590 5592 5594 5596 5598 5599 5601 5603 5605 5607 5609 5611 5612 5614 5615 5616 5617 5618 5618 5619 5620 5620 5619 5619 5618 5617 5616 5615 5614 5613 5612 5611 5610 5609 5608 5606 5605 5604 5602
5574 5576 5578 5580 5581 5583 5585 5587 5589 5590 5592 5594 5596 5598 5600 5602 5603 5604 5605 5607 5607 5608 5609 5610 5610 5611 5611 5610 5610 5609 5608 5607 5607 5606 5605 5605 5604 5603 5601 5600 5599 5598 5596
5566 5568 5570 5571 5573 5574 5576 5578 5580 5581 5583 5585 5587 5589 5590 5592 5594 5595 5596 5597 5599 5600 5600 5601 5602 5602 5602 5602 5601 5601 5600 5599 5599 5599 5598 5598 5597 5596 5595 5594 5593 5592 5591
5557 5559 5561 5563 5564 5566 5567 5569 5571 5572 5574 5576 5577 5579 5581 5583 5585 5586 5587 5589 5590 5591 5592 5592 5593 5593 5593 5593 5593 5593 5592 5592 5592 5591 5591 5591 5590 5590 5589 5588 5587 5586 5585
5548 5550 5552 5554 5555 5556 5558 5559 5561 5563 5565 5567 5568 5570 5572 5573 5575 5577 5578 5580 5582 5583 5584 5584 5585 5585 5586 5586 5585 5585 5585 5585 5585 5584 5584 5584 5584 5583 5583 5582 5581 5580 5580
5540 5541 5543 5545 5546 5547 5549 5550 5552 5553 5555 5557 5559 5561 5562 5564 5566 5568 5570 5571 5573 5574 5575 5576 5577 5577 5578 5577 5577 5577 5577 5577 5577 5577 5577 5577 5577 5576 5576 5575 5575 5574 5574
Wind_Speed
41 40 39 38 38 38 37 37 37 36 36 35 35 35 34 34 33 33 33 32 32 33 33 33 33 32 33 33 33 34 34 35 35 35 35 35 35 36 36 36 36 36 37
41 40 39 39 38 38 38 37 37 36 36 35 35 35 35 34 34 34 33 33 33 33 32 31 32 33 33 33 34 34 35 35 35 35 35 34 34 35 36 35 36 36 37
41 40 39 39 39 38 38 37 37 36 36 35 35 35 35 35 34 34 34 34 34 34 33 33 32 32 33 34 34 34 34 34 34 34 34 34 33 33 34 34 35 35 36
41 40 40 39 39 39 38 37 37 37 36 36 35 35 34 34 34 34 34 34 33 33 33 33 34 33 33 34 33 33 32 32 33 33 33 33 33 33 32 33 34 35 36
41 41 41 41 40 39 38 38 37 37 37 36 35 35 35 34 34 33 33 33 33 33 34 34 34 34 34 33 32 32 32 32 32 32 32 32 33 33 33 33 33 34 35
40 41 41 41 41 40 39 39 38 37 37 36 35 35 35 34 34 34 33 32 33 33 33 33 34 34 34 33 32 32 33 33 33 33 33 33 33 33 34 34 33 34 35
39 40 40 40 40 40 40 39 39 38 37 36 36 35 35 34 33 33 33 32 33 33 33 33 34 34 34 33 33 33 32 33 33 33 33 33 33 34 34 34 34 34 35
37 38 39 40 40 40 40 39 38 38 37 37 36 36 35 34 33 33 33 32 33 33 33 33 34 34 33 33 33 33 32 32 32 33 33 33 33 33 34 34 35 35 35
37 37 37 38 38 38 39 39 38 38 37 37 36 36 35 35 34 34 33 33 33 33 34 33 33 34 34 33 33 32 33 33 33 32 32 32 32 33 33 34 35 36 36
36 37 37 37 37 37 38 38 38 37 37 37 36 36 35 35 35 34 34 33 33 33 33 33 33 33 33 33 33 33 33 33 33 33 33 33 32 33 34 34 35 36 35
35 36 36 37 37 37 37 38 38 37 37 37 36 36 35 35 35 34 34 33 33 32 32 32 32 33 33 33 33 33 33 33 33 33 33 33 33 33 33 34 34 34 33
34 35 36 36 37 37 38 38 38 38 38 37 37 36 36 35 35 35 34 34 33 32 32 32 32 33 33 33 34 34 34 33 33 33 33 33 34 34 34 34 34 33 32
31 33 35 36 36 37 37 38 38 38 38 37 37 37 36 36 36 36 35 34 34 33 32 32 32 33 33 33 34 34 34 33 33 33 33 33 33 33 33 33 32 32 31
29 31 33 34 35 36 36 37 38 38 38 37 37 37 37 36 36 36 36 35 34 34 33 32 32 32 33 33 33 34 33 33 33 33 33 33 32 32 31 31 30 30 31
29 30 31 32 34 35 35 36 37 37 37 37 37 37 37 36 36 36 36 35 35 34 33 32 32 32 32 32 33 33 32 32 33 32 32 31 31 31 30 30 29 30 30
29 30 30 30 31 33 34 35 35 36 36 37 36 36 36 36 36 35 35 35 34 34 33 33 33 32 32 32 32 31 32 31 31 31 31 30 30 30 30 30 30 30 29
29 29 29 30 30 31 32 33 34 35 36 36 36 36 35 36 36 35 35 34 34 34 34 34 34 33 32 32 32 32 31 30 30 30 30 30 29 29 29 29 29 29 28
28 29 29 30 30 30 31 32 33 34 34 34 35 35 35 35 35 35 35 35 34 35 34 34 34 33 32 31 31 31 31 30 30 29 29 29 28 28 28 27 27 27 26
30 30 30 30 30 31 31 31 32 33 33 33 34 34 34 35 35 35 35 35 35 35 34 34 33 33 33 32 31 31 31 30 30 29 29 27 27 27 26 26 26 25 24
31 31 31 31 31 31 31 31 31 32 33 33 33 33 34 34 34 34 34 35 34 34 34 33 33 32 32 32 31 31 31 30 30 29 28 26 25 26 26 25 25 23 23
31 31 31 32 32 32 32 31 31 31 32 32 32 32 33 33 33 33 33 33 33 33 32 32 32 31 31 31 30 30 30 30 29 27 26 25 25 25 25 25 24 23 23
30 30 30 31 31 31 32 32 32 31 31 31 32 33 33 33 32 32 32 32 32 31 31 31 31 31 30 30 30 29 29 28 27 26 25 25 25 24 23 24 24 23 22
30 30 30 30 31 31 31 31 31 31 31 32 32 33 33 33 32 32 32 32 31 31 31 30 30 30 30 29 29 29 28 27 26 25 24 24 24 23 23 24 23 23 22
29 30 30 31 31 31 31 31 31 31 31 31 32 33 33 33 33 32 31 31 30 30 29 28 28 28 28 28 28 28 27 27 25 24 24 24 23 23 23 23 22 22 21
29 30 30 30 31 31 31 31 31 32 31 31 31 32 32 33 33 32 31 30 30 29 28 28 28 27 27 27 27 27 27 26 25 25 24 24 24 24 24 23 23 22 21
28 29 29 30 30 30 30 31 31 32 32 32 31 31 32 32 32 31 31 30 29 28 28 27 27 27 26 26 26 26 26 25 25 25 24 24 24 24 24 23 23 22 22
Wind_Direction
230 231 232 233 234 236 237 239 242 244 247 249 251 252 254 255 257 259 261 263 266 267 268 270 271 274 276 279 281 282 283 284 285 287 288 289 290 291 291 292 292 292 291
231 232 233 234 235 236 238 239 241 244 246 248 250 252 253 255 257 259 261 262 265 267 270 272 273 275 277 279 281 282 283 284 285 286 287 288 289 290 292 293 293 293 293
232 232 233 234 235 236 237 239 242 244 245 247 249 251 253 255 257 258 261 263 265 267 269 271 274 277 278 281 282 282 283 284 285 288 289 289 288 289 292 293 294 295 295
232 233 233 234 235 237 238 240 242 244 245 246 248 250 252 254 256 258 260 262 263 266 269 271 274 277 280 282 282 282 282 284 287 288 289 289 289 290 291 293 295 296 296
233 233 234 235 236 237 238 240 242 243 244 245 247 249 251 254 256 258 260 261 262 265 268 271 274 277 279 281 281 280 282 284 287 288 289 289 289 291 292 292 295 297 297
233 234 234 235 237 238 239 240 242 243 244 245 247 250 252 254 256 258 260 261 263 266 268 271 274 277 278 280 281 281 282 285 287 288 289 289 289 291 293 293 296 298 299
234 234 235 235 237 238 239 240 242 243 243 245 247 249 250 252 255 257 259 261 263 266 269 272 274 275 277 278 279 280 283 285 286 287 289 290 290 292 294 295 296 298 300
233 234 235 236 237 238 239 239 241 242 243 244 246 247 248 250 254 257 260 262 264 267 270 272 274 274 275 277 279 280 282 284 286 288 289 290 292 293 295 296 298 299 301
234 234 235 235 237 238 238 239 239 240 242 244 245 246 248 250 253 256 259 262 265 267 270 272 273 273 275 276 278 280 281 283 286 288 290 291 292 293 295 297 299 301 300
235 236 235 235 236 236 237 238 239 240 241 243 245 246 248 250 253 256 259 261 265 267 269 271 272 272 273 275 278 281 282 283 287 288 290 291 292 293 295 297 299 301 301
235 235 236 236 236 236 236 237 238 239 241 243 245 246 248 251 253 255 258 261 263 266 268 269 271 272 273 274 277 280 282 283 286 288 290 291 292 293 295 296 298 300 301
236 236 236 237 237 237 238 237 237 239 241 242 244 246 248 251 253 255 257 260 262 264 266 268 270 272 273 275 277 280 282 283 284 287 289 290 291 293 294 295 297 299 300
237 236 236 237 237 237 238 239 239 239 240 242 244 246 248 251 253 255 257 259 261 263 266 267 270 272 274 275 278 280 282 282 283 286 288 289 290 292 293 295 296 298 299
238 237 236 237 238 238 239 240 240 240 241 243 244 246 248 251 253 255 257 259 261 263 266 267 270 272 275 277 279 281 281 282 283 285 287 289 290 291 292 294 296 298 299
238 239 238 238 239 239 239 240 241 242 242 243 245 246 248 250 253 255 257 259 261 263 265 267 269 272 274 277 280 281 281 283 284 284 286 289 290 290 291 292 294 297 298
238 239 240 239 239 240 240 240 242 242 243 244 246 247 249 250 253 255 257 259 261 263 265 267 269 271 273 276 279 281 282 283 284 285 286 288 290 290 290 291 293 296 297
239 240 241 240 240 241 240 241 242 243 244 244 245 247 250 251 253 254 257 259 260 263 265 267 268 270 272 274 277 279 282 283 284 285 286 287 288 288 288 290 292 295 295
240 240 242 242 242 243 242 242 242 243 244 244 246 248 249 251 253 255 256 258 261 263 264 266 267 268 270 273 276 277 279 282 284 286 287 286 286 287 287 288 291 293 294
241 242 243 244 245 245 244 244 244 244 244 245 247 248 250 251 253 255 257 259 261 262 262 264 266 267 269 270 273 276 278 280 283 285 286 286 284 284 285 287 290 292 295
242 243 244 245 246 246 246 246 246 246 245 246 247 249 251 252 253 254 256 259 260 261 262 262 264 267 268 270 271 273 275 278 280 281 283 284 284 283 284 286 287 288 291
242 243 245 246 247 247 247 247 248 248 247 246 247 249 251 252 253 254 255 257 258 260 261 262 264 266 267 269 271 273 275 276 277 277 279 281 284 284 284 283 283 285 288
243 244 244 245 246 247 248 247 248 249 249 248 248 249 250 252 253 254 255 256 257 258 259 261 263 265 266 268 271 273 275 275 275 275 275 278 281 282 282 282 283 284 286
244 244 245 245 246 247 248 248 249 250 250 251 250 249 250 251 253 254 255 255 256 257 259 261 262 264 266 267 270 272 274 274 273 273 273 275 277 279 282 282 281 282 283
245 245 246 246 248 249 250 249 249 250 251 251 251 250 250 251 252 253 254 255 256 257 258 259 261 263 265 266 268 270 271 272 271 271 272 272 274 277 280 280 279 280 281
246 246 247 248 249 250 250 250 250 250 251 251 251 251 250 251 252 252 252 253 254 255 257 259 260 262 263 265 268 269 269 268 269 270 270 270 273 276 278 277 277 277 278
247 247 247 248 249 251 251 251 252 251 251 251 252 252 252 251 250 250 249 250 252 255 257 259 260 261 263 265 266 266 265 266 268 269 268 269 272 274 275 275 276 276 277